Time,TemperatureF,DewpointF,PressureIn,WindDirection,WindDirectionDegrees,WindSpeedMPH,WindSpeedGustMPH,Humidity,HourlyPrecipIn,Conditions,Clouds,dailyrainin,SoftwareType,DateUTC
2013-11-01 00:01:00,67.4,59.2,19.20,ENE,61,3.0,9.0,75,0.00,,,0.00,VWS V13.01,2013-11-01 04:01:00,
2013-11-01 00:02:00,67.4,59.2,19.20,South,178,5.0,9.0,75,0.00,,,0.00,VWS V13.01,2013-11-01 04:02:00,
2013-11-01 00:07:00,67.5,58.9,19.20,ESE,111,5.0,11.0,74,0.00,,,0.00,VWS V13.01,2013-11-01 04:07:00,
2013-11-01 00:12:00,67.7,59.1,19.20,SSE,155,4.0,11.0,74,0.00,,,0.00,VWS V13.01,2013-11-01 04:12:00,
2013-11-01 00:17:00,67.8,59.2,19.20,SE,145,2.0,11.0,74,0.00,,,0.00,VWS V13.01,2013-11-01 04:17:00,
2013-11-01 00:22:00,67.7,59.1,19.20,SE,130,3.0,11.0,74,0.00,,,0.00,VWS V13.01,2013-11-01 04:22:00,
2013-11-01 00:27:00,67.8,59.2,19.20,SSE,152,2.0,10.0,74,0.00,,,0.00,VWS V13.01,2013-11-01 04:27:00,
2013-11-01 00:32:00,68.0,59.0,19.20,ESE,105,4.0,17.0,73,0.00,,,0.00,VWS V13.01,2013-11-01 04:32:00,
2013-11-01 00:37:00,68.0,59.0,19.20,SE,143,5.0,9.0,73,0.00,,,0.00,VWS V13.01,2013-11-01 04:37:00,
2013-11-01 00:42:00,68.0,59.0,19.20,East,92,3.0,9.0,73,0.00,,,0.00,VWS V13.01,2013-11-01 04:42:00,
2013-11-01 00:47:00,68.1,59.1,19.20,ESE,107,6.0,14.0,73,0.00,,,0.00,VWS V13.01,2013-11-01 04:47:00,
2013-11-01 00:52:00,68.2,59.2,19.20,ESE,111,1.0,11.0,73,0.00,,,0.00,VWS V13.01,2013-11-01 04:52:00,
2013-11-01 00:57:00,68.1,59.5,19.20,SSW,207,4.0,12.0,74,0.00,,,0.00,VWS V13.01,2013-11-01 04:57:00,
2013-11-01 01:02:00,68.0,59.4,19.20,ESE,123,10.0,12.0,74,0.00,,,0.00,VWS V13.01,2013-11-01 05:02:00,
2013-11-01 01:07:00,68.0,59.8,19.20,ESE,117,4.0,12.0,75,0.00,,,0.00,VWS V13.01,2013-11-01 05:07:00,
2013-11-01 01:12:00,68.0,59.8,19.20,ESE,110,2.0,10.0,75,0.00,,,0.00,VWS V13.01,2013-11-01 05:12:00,
2013-11-01 01:17:00,68.0,59.8,19.20,North,350,2.0,9.0,75,0.00,,,0.00,VWS V13.01,2013-11-01 05:17:00,
2013-11-01 01:22:00,68.0,59.8,19.20,East,80,1.0,10.0,75,0.00,,,0.00,VWS V13.01,2013-11-01 05:22:00,
2013-11-01 01:27:00,68.0,59.8,19.20,ESE,111,4.0,7.0,75,0.00,,,0.00,VWS V13.01,2013-11-01 05:27:00,
2013-11-01 01:32:00,68.0,60.2,19.20,ESE,117,1.0,12.0,76,0.00,,,0.00,VWS V13.01,2013-11-01 05:32:00,
2013-11-01 01:37:00,68.0,60.2,19.20,SSE,155,5.0,10.0,76,0.00,,,0.00,VWS V13.01,2013-11-01 05:37:00,
2013-11-01 01:42:00,68.0,60.2,19.20,East,97,2.0,5.0,76,0.00,,,0.00,VWS V13.01,2013-11-01 05:42:00,
2013-11-01 01:45:00,68.0,60.5,19.20,SSE,148,0.0,2.0,77,0.00,,,0.00,VWS V13.01,2013-11-01 05:45:00,
2013-11-01 01:50:00,68.0,60.5,19.20,SSE,150,5.0,10.0,77,0.00,,,0.00,VWS V13.01,2013-11-01 05:50:00,
2013-11-01 01:55:00,68.2,61.1,19.20,ENE,68,3.0,14.0,78,0.00,,,0.00,VWS V13.01,2013-11-01 05:55:00,
2013-11-01 02:00:00,68.3,61.2,19.20,NW,322,2.0,5.0,78,0.00,,,0.00,VWS V13.01,2013-11-01 06:00:00,
2013-11-01 02:05:00,68.5,61.7,19.20,ESE,114,6.0,11.0,79,0.00,,,0.00,VWS V13.01,2013-11-01 06:05:00,
2013-11-01 02:10:00,68.7,61.6,19.20,SE,140,2.0,11.0,78,0.00,,,0.00,VWS V13.01,2013-11-01 06:10:00,
2013-11-01 02:15:00,68.8,62.0,19.20,SSE,157,2.0,7.0,79,0.00,,,0.00,VWS V13.01,2013-11-01 06:15:00,
2013-11-01 02:20:00,68.9,62.1,19.20,ENE,76,2.0,10.0,79,0.00,,,0.00,VWS V13.01,2013-11-01 06:20:00,
2013-11-01 02:25:00,69.0,62.2,19.20,East,91,3.0,11.0,79,0.00,,,0.00,VWS V13.01,2013-11-01 06:25:00,
2013-11-01 02:30:00,69.2,62.4,19.20,SE,136,3.0,12.0,79,0.00,,,0.00,VWS V13.01,2013-11-01 06:30:00,
2013-11-01 02:35:00,69.4,62.6,19.20,South,184,0.0,9.0,79,0.00,,,0.00,VWS V13.01,2013-11-01 06:35:00,
2013-11-01 02:40:00,69.6,62.8,19.20,SSE,155,1.0,9.0,79,0.00,,,0.00,VWS V13.01,2013-11-01 06:40:00,
2013-11-01 02:45:00,69.7,62.9,19.20,ESE,107,4.0,10.0,79,0.00,,,0.00,VWS V13.01,2013-11-01 06:45:00,
2013-11-01 02:50:00,69.9,63.1,19.20,SSE,161,1.0,11.0,79,0.00,,,0.00,VWS V13.01,2013-11-01 06:50:00,
2013-11-01 02:55:00,70.0,63.2,19.20,SE,145,12.0,15.0,79,0.00,,,0.00,VWS V13.01,2013-11-01 06:55:00,
2013-11-01 03:00:00,70.1,62.9,19.20,ESE,121,10.0,14.0,78,0.00,,,0.00,VWS V13.01,2013-11-01 07:00:00,
2013-11-01 03:05:00,70.1,63.3,19.20,South,175,5.0,9.0,79,0.00,,,0.00,VWS V13.01,2013-11-01 07:05:00,
2013-11-01 03:10:00,70.2,63.4,19.20,NE,42,5.0,11.0,79,0.00,,,0.00,VWS V13.01,2013-11-01 07:10:00,
2013-11-01 03:15:00,70.1,63.3,19.20,ENE,78,1.0,10.0,79,0.00,,,0.00,VWS V13.01,2013-11-01 07:15:00,
2013-11-01 03:20:00,70.2,63.4,19.20,East,92,4.0,10.0,79,0.00,,,0.00,VWS V13.01,2013-11-01 07:20:00,
2013-11-01 03:25:00,70.2,63.4,19.20,East,81,3.0,15.0,79,0.00,,,0.00,VWS V13.01,2013-11-01 07:25:00,
2013-11-01 03:30:00,70.3,63.5,19.20,SSE,150,10.0,15.0,79,0.00,,,0.00,VWS V13.01,2013-11-01 07:30:00,
2013-11-01 03:35:00,70.3,63.5,19.20,ENE,76,5.0,12.0,79,0.00,,,0.00,VWS V13.01,2013-11-01 07:35:00,
2013-11-01 03:40:00,70.2,63.4,19.20,WSW,250,4.0,11.0,79,0.00,,,0.00,VWS V13.01,2013-11-01 07:40:00,
2013-11-01 03:45:00,70.1,63.3,19.20,SSE,164,11.0,15.0,79,0.00,,,0.00,VWS V13.01,2013-11-01 07:45:00,
2013-11-01 03:50:00,70.0,63.2,19.20,SSE,153,9.0,14.0,79,0.00,,,0.00,VWS V13.01,2013-11-01 07:50:00,
2013-11-01 03:55:00,69.9,63.5,19.20,SSE,156,1.0,11.0,80,0.00,,,0.00,VWS V13.01,2013-11-01 07:55:00,
2013-11-01 04:00:00,69.9,63.5,19.20,SSW,193,2.0,9.0,80,0.00,,,0.00,VWS V13.01,2013-11-01 08:00:00,
2013-11-01 04:05:00,69.9,63.8,19.20,South,173,1.0,11.0,81,0.00,,,0.00,VWS V13.01,2013-11-01 08:05:00,
2013-11-01 04:10:00,69.9,63.8,19.20,SE,140,12.0,15.0,81,0.00,,,0.00,VWS V13.01,2013-11-01 08:10:00,
2013-11-01 04:15:00,70.0,63.9,19.20,ESE,103,9.0,10.0,81,0.00,,,0.00,VWS V13.01,2013-11-01 08:15:00,
2013-11-01 04:20:00,70.0,63.9,19.20,ESE,116,9.0,13.0,81,0.00,,,0.00,VWS V13.01,2013-11-01 08:20:00,
2013-11-01 04:25:00,70.1,64.0,19.20,South,176,3.0,10.0,81,0.00,,,0.00,VWS V13.01,2013-11-01 08:25:00,
2013-11-01 04:30:00,70.2,64.1,19.20,SE,142,6.0,11.0,81,0.00,,,0.00,VWS V13.01,2013-11-01 08:30:00,
2013-11-01 04:35:00,70.2,64.1,19.20,East,83,1.0,5.0,81,0.00,,,0.00,VWS V13.01,2013-11-01 08:35:00,
2013-11-01 04:40:00,70.3,64.2,19.20,SSE,148,4.0,9.0,81,0.00,,,0.00,VWS V13.01,2013-11-01 08:40:00,
2013-11-01 04:45:00,70.3,64.2,19.20,SSE,160,6.0,12.0,81,0.00,,,0.00,VWS V13.01,2013-11-01 08:45:00,
2013-11-01 04:50:00,70.3,64.2,19.20,SSE,149,3.0,11.0,81,0.00,,,0.00,VWS V13.01,2013-11-01 08:50:00,
2013-11-01 04:55:00,70.4,64.3,19.20,NE,56,7.0,14.0,81,0.00,,,0.00,VWS V13.01,2013-11-01 08:55:00,
2013-11-01 05:00:00,70.5,64.4,19.20,ESE,121,5.0,7.0,81,0.00,,,0.00,VWS V13.01,2013-11-01 09:00:00,
2013-11-01 05:05:00,70.6,64.5,19.20,East,92,3.0,3.0,81,0.00,,,0.00,VWS V13.01,2013-11-01 09:05:00,
2013-11-01 05:10:00,70.7,64.6,19.20,South,171,3.0,9.0,81,0.00,,,0.00,VWS V13.01,2013-11-01 09:10:00,
2013-11-01 05:15:00,70.7,64.6,19.20,ENE,74,12.0,14.0,81,0.00,,,0.00,VWS V13.01,2013-11-01 09:15:00,
2013-11-01 05:20:00,70.8,64.7,19.20,South,191,7.0,16.0,81,0.00,,,0.00,VWS V13.01,2013-11-01 09:20:00,
2013-11-01 05:25:00,70.8,64.7,19.20,SE,141,5.0,12.0,81,0.00,,,0.00,VWS V13.01,2013-11-01 09:25:00,
2013-11-01 05:30:00,70.9,64.8,19.20,SE,138,13.0,13.0,81,0.00,,,0.00,VWS V13.01,2013-11-01 09:30:00,
2013-11-01 05:35:00,71.0,64.9,19.20,East,94,2.0,11.0,81,0.00,,,0.00,VWS V13.01,2013-11-01 09:35:00,
2013-11-01 05:40:00,71.1,65.0,19.20,SSE,157,4.0,10.0,81,0.00,,,0.00,VWS V13.01,2013-11-01 09:40:00,
2013-11-01 05:45:00,71.3,65.2,19.20,SSE,165,1.0,15.0,81,0.00,,,0.00,VWS V13.01,2013-11-01 09:45:00,
2013-11-01 05:50:00,71.3,65.2,19.20,ESE,116,4.0,11.0,81,0.00,,,0.00,VWS V13.01,2013-11-01 09:50:00,
2013-11-01 05:55:00,71.4,64.9,19.20,ENE,65,9.0,10.0,80,0.00,,,0.00,VWS V13.01,2013-11-01 09:55:00,
2013-11-01 06:00:00,71.4,64.9,19.20,SSE,166,3.0,10.0,80,0.00,,,0.00,VWS V13.01,2013-11-01 10:00:00,
2013-11-01 06:05:00,71.4,64.9,19.20,SSE,153,4.0,7.0,80,0.00,,,0.00,VWS V13.01,2013-11-01 10:05:00,
2013-11-01 06:10:00,71.5,65.0,19.20,SE,140,7.0,13.0,80,0.00,,,0.00,VWS V13.01,2013-11-01 10:10:00,
2013-11-01 06:15:00,71.5,65.0,19.20,SE,146,6.0,13.0,80,0.00,,,0.00,VWS V13.01,2013-11-01 10:15:00,
2013-11-01 06:20:00,71.5,65.0,19.20,SSE,154,3.0,10.0,80,0.00,,,0.00,VWS V13.01,2013-11-01 10:20:00,
2013-11-01 06:25:00,71.4,64.9,19.20,SSE,152,4.0,12.0,80,0.00,,,0.00,VWS V13.01,2013-11-01 10:25:00,
2013-11-01 06:30:00,71.4,65.3,19.20,ESE,117,4.0,11.0,81,0.00,,,0.00,VWS V13.01,2013-11-01 10:30:00,
2013-11-01 06:35:00,71.3,65.2,19.20,South,179,13.0,15.0,81,0.00,,,0.00,VWS V13.01,2013-11-01 10:35:00,
2013-11-01 06:40:00,71.3,65.2,19.20,East,86,7.0,13.0,81,0.00,,,0.00,VWS V13.01,2013-11-01 10:40:00,
2013-11-01 06:45:00,71.3,65.2,19.20,SE,137,9.0,12.0,81,0.00,,,0.00,VWS V13.01,2013-11-01 10:45:00,
2013-11-01 06:50:00,71.3,65.2,19.20,ESE,114,1.0,14.0,81,0.00,,,0.00,VWS V13.01,2013-11-01 10:50:00,
2013-11-01 06:55:00,71.3,65.2,19.20,ENE,61,2.0,10.0,81,0.00,,,0.00,VWS V13.01,2013-11-01 10:55:00,
2013-11-01 07:00:00,71.3,65.2,19.20,NE,55,2.0,4.0,81,0.00,,,0.00,VWS V13.01,2013-11-01 11:00:00,
2013-11-01 07:05:00,71.2,65.1,19.20,East,94,6.0,17.0,81,0.00,,,0.00,VWS V13.01,2013-11-01 11:05:00,
2013-11-01 07:10:00,71.3,65.2,19.20,East,87,12.0,18.0,81,0.00,,,0.00,VWS V13.01,2013-11-01 11:10:00,
2013-11-01 07:15:00,70.9,64.8,19.20,SE,140,11.0,14.0,81,0.00,,,0.00,VWS V13.01,2013-11-01 11:15:00,
2013-11-01 07:20:00,70.7,64.9,19.20,SE,138,5.0,5.0,82,0.00,,,0.00,VWS V13.01,2013-11-01 11:20:00,
2013-11-01 07:25:00,70.5,65.1,19.20,ENE,64,3.0,7.0,83,0.00,,,0.00,VWS V13.01,2013-11-01 11:25:00,
2013-11-01 07:30:00,70.3,64.9,19.20,SSE,161,3.0,9.0,83,0.00,,,0.00,VWS V13.01,2013-11-01 11:30:00,
2013-11-01 07:35:00,70.2,64.8,19.20,SE,141,6.0,11.0,83,0.00,,,0.00,VWS V13.01,2013-11-01 11:35:00,
2013-11-01 07:40:00,70.1,64.7,19.20,East,98,10.0,14.0,83,0.00,,,0.00,VWS V13.01,2013-11-01 11:40:00,
2013-11-01 07:45:00,70.1,64.7,19.20,SSE,159,3.0,13.0,83,0.00,,,0.00,VWS V13.01,2013-11-01 11:45:00,
2013-11-01 07:50:00,70.1,64.7,19.20,SSE,161,10.0,16.0,83,0.00,,,0.00,VWS V13.01,2013-11-01 11:50:00,
2013-11-01 07:55:00,70.1,64.7,19.20,SE,140,9.0,10.0,83,0.00,,,0.00,VWS V13.01,2013-11-01 11:55:00,
2013-11-01 08:00:00,70.1,64.7,19.20,SSE,159,10.0,11.0,83,0.00,,,0.00,VWS V13.01,2013-11-01 12:00:00,
2013-11-01 08:05:00,70.0,64.6,19.20,ESE,115,6.0,6.0,83,0.00,,,0.00,VWS V13.01,2013-11-01 12:05:00,
2013-11-01 08:10:00,70.1,64.7,19.20,South,173,7.0,9.0,83,0.00,,,0.00,VWS V13.01,2013-11-01 12:10:00,
2013-11-01 08:15:00,70.1,64.7,19.20,SSW,207,4.0,9.0,83,0.00,,,0.00,VWS V13.01,2013-11-01 12:15:00,
2013-11-01 08:20:00,70.1,64.7,19.20,South,177,6.0,12.0,83,0.00,,,0.00,VWS V13.01,2013-11-01 12:20:00,
2013-11-01 08:25:00,70.2,64.8,19.20,SSE,163,4.0,7.0,83,0.00,,,0.00,VWS V13.01,2013-11-01 12:25:00,
2013-11-01 08:30:00,70.2,64.8,19.20,East,91,1.0,6.0,83,0.00,,,0.00,VWS V13.01,2013-11-01 12:30:00,
2013-11-01 08:35:00,70.3,64.9,19.20,South,178,1.0,3.0,83,0.00,,,0.00,VWS V13.01,2013-11-01 12:35:00,
2013-11-01 08:40:00,70.3,64.9,19.20,SSW,200,7.0,7.0,83,0.00,,,0.00,VWS V13.01,2013-11-01 12:40:00,
2013-11-01 08:45:00,70.3,64.9,19.20,ESE,118,5.0,7.0,83,0.00,,,0.00,VWS V13.01,2013-11-01 12:45:00,
2013-11-01 08:50:00,70.4,65.0,19.20,SSE,165,1.0,4.0,83,0.00,,,0.00,VWS V13.01,2013-11-01 12:50:00,
2013-11-01 08:55:00,70.3,64.9,19.20,SSE,155,0.0,3.0,83,0.00,,,0.00,VWS V13.01,2013-11-01 12:55:00,
2013-11-01 09:00:00,70.3,64.6,19.20,SE,142,0.0,4.0,82,0.00,,,0.00,VWS V13.01,2013-11-01 13:00:00,
2013-11-01 09:05:00,70.3,64.9,19.20,ESE,111,3.0,3.0,83,0.00,,,0.00,VWS V13.01,2013-11-01 13:05:00,
2013-11-01 09:10:00,70.3,64.9,19.20,SE,134,3.0,5.0,83,0.00,,,0.00,VWS V13.01,2013-11-01 13:10:00,
2013-11-01 09:15:00,70.3,64.9,19.20,WSW,238,1.0,6.0,83,0.00,,,0.00,VWS V13.01,2013-11-01 13:15:00,
2013-11-01 09:20:00,70.4,64.7,19.20,WNW,288,9.0,10.0,82,0.00,,,0.00,VWS V13.01,2013-11-01 13:20:00,
2013-11-01 09:25:00,67.5,61.5,19.20,WNW,283,6.0,12.0,81,0.05,,,0.07,VWS V13.01,2013-11-01 13:25:00,
2013-11-01 09:30:00,64.9,60.3,19.20,South,169,9.0,15.0,85,0.08,,,0.08,VWS V13.01,2013-11-01 13:30:00,
2013-11-01 09:35:00,63.9,60.0,19.20,South,171,5.0,5.0,87,0.09,,,0.09,VWS V13.01,2013-11-01 13:35:00,
2013-11-01 09:40:00,63.4,59.8,19.20,SW,236,2.0,4.0,88,0.10,,,0.10,VWS V13.01,2013-11-01 13:40:00,
2013-11-01 09:45:00,63.1,59.8,19.20,SSW,192,8.0,8.0,89,0.11,,,0.11,VWS V13.01,2013-11-01 13:45:00,
2013-11-01 09:50:00,62.9,59.9,19.20,South,169,4.0,13.0,90,0.11,,,0.11,VWS V13.01,2013-11-01 13:50:00,
2013-11-01 09:55:00,62.9,59.9,19.20,SSW,198,12.0,12.0,90,0.11,,,0.11,VWS V13.01,2013-11-01 13:55:00,
2013-11-01 10:00:00,62.8,59.8,19.20,SW,225,6.0,7.0,90,0.11,,,0.11,VWS V13.01,2013-11-01 14:00:00,
2013-11-01 10:05:00,62.7,59.7,19.20,SSW,209,2.0,3.0,90,0.11,,,0.11,VWS V13.01,2013-11-01 14:05:00,
2013-11-01 10:10:00,62.7,59.7,19.20,SW,233,3.0,7.0,90,0.11,,,0.11,VWS V13.01,2013-11-01 14:10:00,
2013-11-01 10:15:00,62.8,59.8,19.20,SW,217,2.0,10.0,90,0.11,,,0.11,VWS V13.01,2013-11-01 14:15:00,
2013-11-01 10:20:00,62.9,59.9,19.20,South,184,3.0,3.0,90,0.11,,,0.11,VWS V13.01,2013-11-01 14:20:00,
2013-11-01 10:25:00,63.1,60.1,19.20,South,174,1.0,2.0,90,0.06,,,0.11,VWS V13.01,2013-11-01 14:25:00,
2013-11-01 10:30:00,63.2,60.2,19.20,South,190,0.0,2.0,90,0.03,,,0.11,VWS V13.01,2013-11-01 14:30:00,
2013-11-01 10:35:00,63.4,60.4,19.20,SSW,205,0.0,1.0,90,0.03,,,0.11,VWS V13.01,2013-11-01 14:35:00,
2013-11-01 10:40:00,63.6,60.6,19.20,SSW,206,0.0,2.0,90,0.01,,,0.11,VWS V13.01,2013-11-01 14:40:00,
2013-11-01 10:45:00,63.7,60.7,19.20,SSW,202,0.0,3.0,90,0.00,,,0.11,VWS V13.01,2013-11-01 14:45:00,
2013-11-01 10:50:00,63.8,60.8,19.20,South,178,1.0,3.0,90,0.00,,,0.11,VWS V13.01,2013-11-01 14:50:00,
2013-11-01 10:55:00,63.8,60.8,19.20,South,190,1.0,1.0,90,0.00,,,0.11,VWS V13.01,2013-11-01 14:55:00,
2013-11-01 11:00:00,63.9,60.9,19.20,South,189,0.0,0.0,90,0.00,,,0.11,VWS V13.01,2013-11-01 15:00:00,
2013-11-01 11:05:00,64.0,60.7,19.20,South,190,1.0,1.0,89,0.00,,,0.11,VWS V13.01,2013-11-01 15:05:00,
2013-11-01 11:10:00,64.2,61.2,19.20,South,188,2.0,3.0,90,0.00,,,0.11,VWS V13.01,2013-11-01 15:10:00,
2013-11-01 11:15:00,64.1,60.8,19.20,SSW,208,3.0,4.0,89,0.00,,,0.11,VWS V13.01,2013-11-01 15:15:00,
2013-11-01 11:20:00,64.1,60.8,19.20,ESE,113,0.0,3.0,89,0.00,,,0.11,VWS V13.01,2013-11-01 15:20:00,
2013-11-01 11:25:00,64.1,60.8,19.20,SE,138,0.0,1.0,89,0.00,,,0.11,VWS V13.01,2013-11-01 15:25:00,
2013-11-01 11:30:00,64.1,60.8,19.20,SE,139,0.0,0.0,89,0.00,,,0.11,VWS V13.01,2013-11-01 15:30:00,
2013-11-01 11:35:00,64.4,61.1,19.20,SE,139,0.0,1.0,89,0.00,,,0.11,VWS V13.01,2013-11-01 15:35:00,
2013-11-01 11:40:00,64.6,61.3,19.20,SE,139,0.0,0.0,89,0.00,,,0.11,VWS V13.01,2013-11-01 15:40:00,
2013-11-01 11:45:00,64.8,61.5,19.20,SE,138,0.0,1.0,89,0.00,,,0.11,VWS V13.01,2013-11-01 15:45:00,
2013-11-01 11:50:00,64.9,61.6,19.20,ESE,105,2.0,3.0,89,0.00,,,0.11,VWS V13.01,2013-11-01 15:50:00,
2013-11-01 11:55:00,64.8,61.5,19.20,ESE,106,0.0,1.0,89,0.00,,,0.11,VWS V13.01,2013-11-01 15:55:00,
2013-11-01 12:00:00,64.8,61.5,19.20,ESE,106,1.0,1.0,89,0.00,,,0.11,VWS V13.01,2013-11-01 16:00:00,
2013-11-01 12:05:00,64.8,61.5,19.20,ESE,106,0.0,1.0,89,0.00,,,0.11,VWS V13.01,2013-11-01 16:05:00,
2013-11-01 12:10:00,65.0,61.7,19.20,ESE,106,3.0,3.0,89,0.00,,,0.11,VWS V13.01,2013-11-01 16:10:00,
2013-11-01 12:15:00,65.2,61.9,19.20,ESE,106,3.0,3.0,89,0.00,,,0.11,VWS V13.01,2013-11-01 16:15:00,
2013-11-01 12:20:00,65.3,62.0,19.20,ESE,111,0.0,3.0,89,0.00,,,0.11,VWS V13.01,2013-11-01 16:20:00,
2013-11-01 12:25:00,65.7,62.4,19.20,ESE,111,1.0,1.0,89,0.00,,,0.11,VWS V13.01,2013-11-01 16:25:00,
2013-11-01 12:30:00,65.9,62.6,19.20,SE,125,2.0,2.0,89,0.00,,,0.11,VWS V13.01,2013-11-01 16:30:00,
2013-11-01 12:35:00,66.1,62.8,19.20,ESE,120,1.0,4.0,89,0.00,,,0.11,VWS V13.01,2013-11-01 16:35:00,
2013-11-01 12:40:00,66.3,62.6,19.20,SE,126,0.0,0.0,88,0.00,,,0.11,VWS V13.01,2013-11-01 16:40:00,
2013-11-01 12:45:00,66.7,63.0,19.20,SSE,161,0.0,1.0,88,0.00,,,0.11,VWS V13.01,2013-11-01 16:45:00,
2013-11-01 12:50:00,67.2,62.9,19.20,South,178,1.0,2.0,86,0.00,,,0.11,VWS V13.01,2013-11-01 16:50:00,
2013-11-01 12:55:00,67.7,63.0,19.20,South,188,3.0,6.0,85,0.00,,,0.11,VWS V13.01,2013-11-01 16:55:00,
2013-11-01 13:00:00,68.1,63.1,19.20,South,176,1.0,3.0,84,0.00,,,0.11,VWS V13.01,2013-11-01 17:00:00,
2013-11-01 13:05:00,68.5,63.5,19.20,SSE,155,3.0,3.0,84,0.00,,,0.11,VWS V13.01,2013-11-01 17:05:00,
2013-11-01 13:10:00,69.0,63.6,19.20,SE,127,2.0,2.0,83,0.00,,,0.11,VWS V13.01,2013-11-01 17:10:00,
2013-11-01 13:15:00,69.3,63.2,19.20,SSW,198,4.0,5.0,81,0.00,,,0.11,VWS V13.01,2013-11-01 17:15:00,
2013-11-01 13:20:00,69.5,63.1,19.20,SE,134,1.0,7.0,80,0.00,,,0.11,VWS V13.01,2013-11-01 17:20:00,
2013-11-01 13:25:00,69.6,63.2,19.20,South,171,0.0,3.0,80,0.00,,,0.11,VWS V13.01,2013-11-01 17:25:00,
2013-11-01 13:30:00,69.8,63.0,19.20,SE,136,0.0,4.0,79,0.00,,,0.11,VWS V13.01,2013-11-01 17:30:00,
2013-11-01 13:35:00,69.8,62.6,19.20,SSW,196,3.0,7.0,78,0.00,,,0.11,VWS V13.01,2013-11-01 17:35:00,
2013-11-01 13:40:00,69.9,62.7,19.20,SSE,149,2.0,3.0,78,0.00,,,0.11,VWS V13.01,2013-11-01 17:40:00,
2013-11-01 13:45:00,70.1,62.9,19.20,SE,126,1.0,4.0,78,0.00,,,0.11,VWS V13.01,2013-11-01 17:45:00,
2013-11-01 13:50:00,70.4,63.2,19.20,SE,132,2.0,5.0,78,0.00,,,0.11,VWS V13.01,2013-11-01 17:50:00,
2013-11-01 13:55:00,70.5,63.0,19.20,South,182,6.0,6.0,77,0.00,,,0.11,VWS V13.01,2013-11-01 17:55:00,
2013-11-01 14:01:00,70.7,63.1,19.20,SSE,163,4.0,5.0,77,0.00,,,0.11,VWS V13.01,2013-11-01 18:01:00,
2013-11-01 14:06:00,71.0,63.1,19.20,SSE,159,0.0,4.0,76,0.00,,,0.11,VWS V13.01,2013-11-01 18:06:00,
2013-11-01 14:11:00,71.8,63.5,19.20,SE,136,1.0,5.0,75,0.00,,,0.11,VWS V13.01,2013-11-01 18:11:00,
2013-11-01 14:16:00,72.1,63.0,19.20,SSW,213,3.0,6.0,73,0.00,,,0.11,VWS V13.01,2013-11-01 18:16:00,
2013-11-01 14:21:00,72.1,63.0,19.20,SSW,211,0.0,0.0,73,0.00,,,0.11,VWS V13.01,2013-11-01 18:21:00,
2013-11-01 14:26:00,72.2,63.1,19.20,SSW,210,0.0,3.0,73,0.00,,,0.11,VWS V13.01,2013-11-01 18:26:00,
2013-11-01 14:31:00,72.3,63.2,19.20,SSW,210,0.0,1.0,73,0.00,,,0.11,VWS V13.01,2013-11-01 18:31:00,
2013-11-01 14:36:00,72.4,63.3,19.20,SSW,211,0.0,0.0,73,0.00,,,0.11,VWS V13.01,2013-11-01 18:36:00,
2013-11-01 14:41:00,72.7,63.9,19.20,SSW,211,0.0,0.0,74,0.00,,,0.11,VWS V13.01,2013-11-01 18:41:00,
2013-11-01 14:46:00,73.1,63.9,19.20,SSW,211,1.0,1.0,73,0.00,,,0.11,VWS V13.01,2013-11-01 18:46:00,
2013-11-01 14:51:00,73.1,63.2,19.20,SSW,207,1.0,4.0,71,0.00,,,0.11,VWS V13.01,2013-11-01 18:51:00,
2013-11-01 14:56:00,73.4,62.6,19.20,ESE,110,0.0,6.0,69,0.00,,,0.11,VWS V13.01,2013-11-01 18:56:00,
2013-11-01 15:01:00,74.2,63.4,19.20,East,99,2.0,6.0,69,0.01,,,0.12,VWS V13.01,2013-11-01 19:01:00,
2013-11-01 15:06:00,74.4,63.2,19.20,East,91,2.0,4.0,68,0.01,,,0.12,VWS V13.01,2013-11-01 19:06:00,
2013-11-01 15:11:00,74.8,64.0,19.20,East,96,1.0,5.0,69,0.01,,,0.12,VWS V13.01,2013-11-01 19:11:00,
2013-11-01 15:16:00,74.7,62.6,19.20,East,79,0.0,2.0,66,0.01,,,0.12,VWS V13.01,2013-11-01 19:16:00,
2013-11-01 15:21:00,74.6,62.9,19.20,East,94,1.0,2.0,67,0.01,,,0.12,VWS V13.01,2013-11-01 19:21:00,
2013-11-01 15:26:00,74.5,62.8,19.20,SSE,155,0.0,4.0,67,0.01,,,0.12,VWS V13.01,2013-11-01 19:26:00,
2013-11-01 15:31:00,74.4,62.3,19.20,ENE,66,1.0,4.0,66,0.01,,,0.12,VWS V13.01,2013-11-01 19:31:00,
2013-11-01 15:36:00,75.0,62.9,19.20,ENE,78,3.0,3.0,66,0.01,,,0.12,VWS V13.01,2013-11-01 19:36:00,
2013-11-01 15:41:00,75.1,62.5,19.20,SE,145,2.0,3.0,65,0.01,,,0.12,VWS V13.01,2013-11-01 19:41:00,
2013-11-01 15:46:00,75.4,62.8,19.20,SW,225,2.0,4.0,65,0.01,,,0.12,VWS V13.01,2013-11-01 19:46:00,
2013-11-01 15:51:00,75.7,61.3,19.20,SSE,159,0.0,7.0,61,0.01,,,0.12,VWS V13.01,2013-11-01 19:51:00,
2013-11-01 15:56:00,75.7,62.7,19.20,SSE,150,4.0,8.0,64,0.01,,,0.12,VWS V13.01,2013-11-01 19:56:00,
2013-11-01 16:01:00,75.7,63.1,19.20,ESE,104,4.0,4.0,65,0.00,,,0.12,VWS V13.01,2013-11-01 20:01:00,
2013-11-01 16:06:00,75.5,62.9,19.20,SSE,151,7.0,10.0,65,0.00,,,0.12,VWS V13.01,2013-11-01 20:06:00,
2013-11-01 16:11:00,74.8,63.1,19.20,SE,138,0.0,6.0,67,0.00,,,0.12,VWS V13.01,2013-11-01 20:11:00,
2013-11-01 16:16:00,74.4,62.7,19.20,South,190,3.0,7.0,67,0.00,,,0.12,VWS V13.01,2013-11-01 20:16:00,
2013-11-01 16:21:00,74.1,63.3,19.20,South,176,5.0,6.0,69,0.00,,,0.12,VWS V13.01,2013-11-01 20:21:00,
2013-11-01 16:26:00,74.1,63.7,19.20,SE,130,2.0,6.0,70,0.00,,,0.12,VWS V13.01,2013-11-01 20:26:00,
2013-11-01 16:31:00,74.1,64.1,19.20,ESE,109,3.0,7.0,71,0.00,,,0.12,VWS V13.01,2013-11-01 20:31:00,
2013-11-01 16:36:00,73.7,64.5,19.20,South,184,1.0,6.0,73,0.00,,,0.12,VWS V13.01,2013-11-01 20:36:00,
2013-11-01 16:41:00,73.4,63.8,19.20,SSE,148,7.0,8.0,72,0.00,,,0.12,VWS V13.01,2013-11-01 20:41:00,
2013-11-01 16:46:00,73.1,63.5,19.20,East,94,0.0,7.0,72,0.00,,,0.12,VWS V13.01,2013-11-01 20:46:00,
2013-11-01 16:51:00,72.7,63.5,19.20,East,96,0.0,6.0,73,0.00,,,0.12,VWS V13.01,2013-11-01 20:51:00,
2013-11-01 16:56:00,72.6,63.5,19.20,SSE,147,1.0,4.0,73,0.00,,,0.12,VWS V13.01,2013-11-01 20:56:00,
2013-11-01 17:01:00,72.5,63.0,19.20,East,79,4.0,10.0,72,0.00,,,0.12,VWS V13.01,2013-11-01 21:01:00,
2013-11-01 17:06:00,72.3,63.2,19.20,ENE,78,1.0,6.0,73,0.00,,,0.12,VWS V13.01,2013-11-01 21:06:00,
2013-11-01 17:11:00,72.2,63.1,19.20,East,83,7.0,7.0,73,0.00,,,0.12,VWS V13.01,2013-11-01 21:11:00,
2013-11-01 17:16:00,71.8,62.7,19.20,ENE,74,5.0,9.0,73,0.00,,,0.12,VWS V13.01,2013-11-01 21:16:00,
2013-11-01 17:21:00,71.6,62.5,19.20,SE,133,3.0,9.0,73,0.00,,,0.12,VWS V13.01,2013-11-01 21:21:00,
2013-11-01 17:26:00,71.4,62.3,19.20,ENE,76,1.0,6.0,73,0.00,,,0.12,VWS V13.01,2013-11-01 21:26:00,
2013-11-01 17:31:00,71.3,62.2,19.20,East,101,1.0,4.0,73,0.00,,,0.12,VWS V13.01,2013-11-01 21:31:00,
2013-11-01 17:36:00,70.9,62.2,19.20,ESE,109,2.0,9.0,74,0.00,,,0.12,VWS V13.01,2013-11-01 21:36:00,
2013-11-01 17:41:00,70.7,62.0,19.20,NE,56,3.0,4.0,74,0.00,,,0.12,VWS V13.01,2013-11-01 21:41:00,
2013-11-01 17:46:00,70.5,61.8,19.20,ESE,103,1.0,4.0,74,0.00,,,0.12,VWS V13.01,2013-11-01 21:46:00,
2013-11-01 17:51:00,70.3,62.0,19.20,SE,134,1.0,3.0,75,0.00,,,0.12,VWS V13.01,2013-11-01 21:51:00,
2013-11-01 17:56:00,70.1,61.8,19.20,East,99,0.0,3.0,75,0.00,,,0.12,VWS V13.01,2013-11-01 21:56:00,
2013-11-01 18:01:00,69.9,61.6,19.20,East,99,1.0,3.0,75,0.00,,,0.12,VWS V13.01,2013-11-01 22:01:00,
2013-11-01 18:06:00,69.7,61.4,19.20,ESE,121,1.0,5.0,75,0.00,,,0.12,VWS V13.01,2013-11-01 22:06:00,
2013-11-01 18:11:00,69.5,61.6,19.20,ESE,120,2.0,3.0,76,0.00,,,0.12,VWS V13.01,2013-11-01 22:11:00,
2013-11-01 18:16:00,69.2,61.3,19.20,SE,137,1.0,3.0,76,0.00,,,0.12,VWS V13.01,2013-11-01 22:16:00,
2013-11-01 18:21:00,69.0,61.5,19.20,ESE,119,1.0,2.0,77,0.00,,,0.12,VWS V13.01,2013-11-01 22:21:00,
2013-11-01 18:26:00,68.8,61.3,19.20,East,92,0.0,2.0,77,0.00,,,0.12,VWS V13.01,2013-11-01 22:26:00,
2013-11-01 18:31:00,68.6,61.1,19.20,East,99,0.0,0.0,77,0.00,,,0.12,VWS V13.01,2013-11-01 22:31:00,
2013-11-01 18:36:00,68.4,60.9,19.20,East,100,2.0,2.0,77,0.00,,,0.12,VWS V13.01,2013-11-01 22:36:00,
2013-11-01 18:41:00,68.2,60.7,19.20,East,101,0.0,1.0,77,0.00,,,0.12,VWS V13.01,2013-11-01 22:41:00,
2013-11-01 18:46:00,68.1,61.0,19.20,East,101,1.0,1.0,78,0.00,,,0.12,VWS V13.01,2013-11-01 22:46:00,
2013-11-01 18:51:00,68.0,60.5,19.20,East,101,0.0,0.0,77,0.00,,,0.12,VWS V13.01,2013-11-01 22:51:00,
2013-11-01 18:56:00,67.8,60.7,19.20,East,101,0.0,0.0,78,0.00,,,0.12,VWS V13.01,2013-11-01 22:56:00,
2013-11-01 19:01:00,67.5,60.4,19.20,East,101,0.0,0.0,78,0.00,,,0.12,VWS V13.01,2013-11-01 23:01:00,
2013-11-01 19:06:00,67.2,60.5,19.20,East,101,0.0,0.0,79,0.00,,,0.12,VWS V13.01,2013-11-01 23:06:00,
2013-11-01 19:11:00,66.9,60.2,19.20,East,101,0.0,0.0,79,0.00,,,0.12,VWS V13.01,2013-11-01 23:11:00,
2013-11-01 19:16:00,66.6,60.2,19.20,East,101,0.0,0.0,80,0.00,,,0.12,VWS V13.01,2013-11-01 23:16:00,
2013-11-01 19:21:00,66.3,60.0,19.20,East,101,0.0,0.0,80,0.00,,,0.12,VWS V13.01,2013-11-01 23:21:00,
2013-11-01 19:26:00,65.9,59.9,19.20,East,101,0.0,0.0,81,0.00,,,0.12,VWS V13.01,2013-11-01 23:26:00,
2013-11-01 19:31:00,65.6,59.6,19.20,East,101,0.0,0.0,81,0.00,,,0.12,VWS V13.01,2013-11-01 23:31:00,
2013-11-01 19:36:00,65.3,59.7,19.20,East,101,0.0,0.0,82,0.00,,,0.12,VWS V13.01,2013-11-01 23:36:00,
2013-11-01 19:41:00,65.0,59.4,19.20,East,101,0.0,0.0,82,0.00,,,0.12,VWS V13.01,2013-11-01 23:41:00,
2013-11-01 19:46:00,64.8,59.5,19.20,East,101,0.0,0.0,83,0.00,,,0.12,VWS V13.01,2013-11-01 23:46:00,
2013-11-01 19:51:00,64.6,59.3,19.20,East,101,0.0,0.0,83,0.00,,,0.12,VWS V13.01,2013-11-01 23:51:00,
2013-11-01 19:56:00,64.4,59.1,19.20,East,101,0.0,0.0,83,0.00,,,0.12,VWS V13.01,2013-11-01 23:56:00,
2013-11-01 20:01:00,64.2,58.9,19.20,East,101,0.0,0.0,83,0.00,,,0.12,VWS V13.01,2013-11-02 00:01:00,
2013-11-01 20:06:00,63.9,59.0,19.20,East,101,0.0,0.0,84,0.00,,,0.12,VWS V13.01,2013-11-02 00:06:00,
2013-11-01 20:11:00,63.9,59.0,19.20,East,101,0.0,0.0,84,0.00,,,0.12,VWS V13.01,2013-11-02 00:11:00,
2013-11-01 20:16:00,63.8,59.2,19.20,East,101,0.0,0.0,85,0.00,,,0.12,VWS V13.01,2013-11-02 00:16:00,
2013-11-01 20:21:00,63.8,59.2,19.20,East,101,0.0,0.0,85,0.00,,,0.12,VWS V13.01,2013-11-02 00:21:00,
2013-11-01 20:26:00,63.8,59.2,19.20,East,101,0.0,3.0,85,0.00,,,0.12,VWS V13.01,2013-11-02 00:26:00,
2013-11-01 20:31:00,63.7,59.1,19.20,East,101,0.0,1.0,85,0.00,,,0.12,VWS V13.01,2013-11-02 00:31:00,
2013-11-01 20:36:00,63.7,59.1,19.20,ESE,123,0.0,3.0,85,0.00,,,0.12,VWS V13.01,2013-11-02 00:36:00,
2013-11-01 20:41:00,63.8,59.2,19.20,ESE,122,0.0,1.0,85,0.00,,,0.12,VWS V13.01,2013-11-02 00:41:00,
2013-11-01 20:46:00,63.9,59.6,19.20,ESE,123,0.0,1.0,86,0.00,,,0.12,VWS V13.01,2013-11-02 00:46:00,
2013-11-01 20:51:00,64.0,59.7,19.20,SE,132,0.0,3.0,86,0.00,,,0.12,VWS V13.01,2013-11-02 00:51:00,
2013-11-01 20:56:00,64.0,59.4,19.20,SSE,153,4.0,4.0,85,0.00,,,0.12,VWS V13.01,2013-11-02 00:56:00,
2013-11-01 21:01:00,64.0,59.7,19.20,ESE,103,1.0,2.0,86,0.00,,,0.12,VWS V13.01,2013-11-02 01:01:00,
2013-11-01 21:06:00,64.0,59.7,19.20,ESE,103,0.0,1.0,86,0.00,,,0.12,VWS V13.01,2013-11-02 01:06:00,
2013-11-01 21:11:00,64.0,59.7,19.20,ESE,106,0.0,2.0,86,0.00,,,0.12,VWS V13.01,2013-11-02 01:11:00,
2013-11-01 21:16:00,64.0,59.7,19.20,ESE,107,0.0,1.0,86,0.00,,,0.12,VWS V13.01,2013-11-02 01:16:00,
2013-11-01 21:21:00,64.0,59.7,19.20,ESE,107,0.0,3.0,86,0.00,,,0.12,VWS V13.01,2013-11-02 01:21:00,
2013-11-01 21:26:00,63.9,60.0,19.20,ESE,119,1.0,1.0,87,0.00,,,0.12,VWS V13.01,2013-11-02 01:26:00,
2013-11-01 21:31:00,63.8,59.9,19.20,SE,130,0.0,0.0,87,0.00,,,0.12,VWS V13.01,2013-11-02 01:31:00,
2013-11-01 21:36:00,63.7,59.8,19.20,SE,130,0.0,0.0,87,0.00,,,0.12,VWS V13.01,2013-11-02 01:36:00,
2013-11-01 21:41:00,63.5,59.6,19.20,SE,130,0.0,0.0,87,0.00,,,0.12,VWS V13.01,2013-11-02 01:41:00,
2013-11-01 21:46:00,63.3,59.4,19.20,SE,130,0.0,0.0,87,0.00,,,0.12,VWS V13.01,2013-11-02 01:46:00,
2013-11-01 21:51:00,63.1,59.2,19.20,SE,130,0.0,1.0,87,0.00,,,0.12,VWS V13.01,2013-11-02 01:51:00,
2013-11-01 21:56:00,63.0,59.4,19.20,SE,130,0.0,0.0,88,0.00,,,0.12,VWS V13.01,2013-11-02 01:56:00,
2013-11-01 22:01:00,62.8,58.9,19.20,SE,129,0.0,0.0,87,0.00,,,0.12,VWS V13.01,2013-11-02 02:01:00,
2013-11-01 22:06:00,62.6,59.0,19.20,SE,129,0.0,0.0,88,0.00,,,0.12,VWS V13.01,2013-11-02 02:06:00,
2013-11-01 22:11:00,62.4,58.8,19.20,SE,130,0.0,0.0,88,0.00,,,0.12,VWS V13.01,2013-11-02 02:11:00,
2013-11-01 22:16:00,62.4,58.8,19.20,SE,130,0.0,0.0,88,0.00,,,0.12,VWS V13.01,2013-11-02 02:16:00,
2013-11-01 22:21:00,62.2,58.6,19.20,SE,130,0.0,0.0,88,0.00,,,0.12,VWS V13.01,2013-11-02 02:21:00,
2013-11-01 22:26:00,61.9,58.6,19.20,SE,130,0.0,0.0,89,0.00,,,0.12,VWS V13.01,2013-11-02 02:26:00,
2013-11-01 22:31:00,61.6,58.3,19.20,SE,130,0.0,0.0,89,0.00,,,0.12,VWS V13.01,2013-11-02 02:31:00,
2013-11-01 22:36:00,61.2,57.9,19.20,SE,129,0.0,0.0,89,0.00,,,0.12,VWS V13.01,2013-11-02 02:36:00,
2013-11-01 22:41:00,61.1,58.2,19.20,SSE,150,2.0,2.0,90,0.00,,,0.12,VWS V13.01,2013-11-02 02:41:00,
2013-11-01 22:46:00,61.1,58.2,19.20,SSE,158,0.0,1.0,90,0.00,,,0.12,VWS V13.01,2013-11-02 02:46:00,
2013-11-01 22:51:00,61.2,58.2,19.20,SSE,158,0.0,0.0,90,0.00,,,0.12,VWS V13.01,2013-11-02 02:51:00,
2013-11-01 22:56:00,60.9,58.0,19.20,SSE,158,0.0,0.0,90,0.00,,,0.12,VWS V13.01,2013-11-02 02:56:00,
2013-11-01 23:01:00,60.7,57.8,19.20,SSE,158,0.0,0.0,90,0.00,,,0.12,VWS V13.01,2013-11-02 03:01:00,
2013-11-01 23:06:00,60.5,57.6,19.20,SSE,158,0.0,1.0,90,0.00,,,0.12,VWS V13.01,2013-11-02 03:06:00,
2013-11-01 23:11:00,60.4,57.8,19.20,SSE,157,0.0,0.0,91,0.00,,,0.12,VWS V13.01,2013-11-02 03:11:00,
2013-11-01 23:16:00,60.5,57.9,19.20,SSE,158,0.0,0.0,91,0.00,,,0.12,VWS V13.01,2013-11-02 03:16:00,
2013-11-01 23:21:00,60.6,58.0,19.20,SSE,157,0.0,0.0,91,0.00,,,0.12,VWS V13.01,2013-11-02 03:21:00,
2013-11-01 23:26:00,60.8,58.2,19.20,SSE,158,0.0,1.0,91,0.00,,,0.12,VWS V13.01,2013-11-02 03:26:00,
2013-11-01 23:31:00,61.0,58.4,19.20,SSE,157,1.0,1.0,91,0.00,,,0.12,VWS V13.01,2013-11-02 03:31:00,
2013-11-01 23:36:00,61.0,58.4,19.20,SSE,158,0.0,0.0,91,0.00,,,0.12,VWS V13.01,2013-11-02 03:36:00,
2013-11-01 23:41:00,61.3,59.0,19.20,SSE,158,0.0,0.0,92,0.00,,,0.12,VWS V13.01,2013-11-02 03:41:00,
2013-11-01 23:46:00,61.6,59.3,19.20,SSE,157,0.0,0.0,92,0.00,,,0.12,VWS V13.01,2013-11-02 03:46:00,
2013-11-01 23:51:00,61.6,59.0,19.20,SSE,157,0.0,1.0,91,0.00,,,0.12,VWS V13.01,2013-11-02 03:51:00,
2013-11-01 23:56:00,61.4,58.8,19.20,SSE,158,0.0,0.0,91,0.00,,,0.00,VWS V13.01,2013-11-02 03:56:00,